Location: Newark
(20.0000°S, 47.0000°E)
Time: 20:32:26
(UTC+00:00)

Envisat - Pass Details

Date: 22 June 2019
Orbit: 764 x 766 km, 98.1° (Epoch: 19 July)

Event Time Altitude Azimuth Distance (km) Brightness Sun altitude
Rises 02:26:21 0° 50° (NE) 3,215 7.7 -13.9°
Reaches altitude 10° 02:29:27 10° 70° (ENE) 2,297 7.0 -13.2°
Maximum altitude 02:32:34 17° 108° (ESE) 1,886 5.8 -12.5°
Drops below altitude 10° 02:35:42 10° 147° (SSE) 2,312 5.6 -11.8°
Sets 02:38:49 0° 166° (SSE) 3,246 6.2 -11.1°
